AB8Y-13 Weather Reports


time (UTC)temp
F
wind
direction
speed
knots
gust
knots
rain 1hr
in
rain 24hr
in
rain mn
in
humidity
%
barometer
mb
20260510213929 56 173 0.9 1.7 0.00 0.00 0.00 40 1018.7
20260510213426 57 26 0.9 0.9 0.00 0.00 0.00 34 1018.5
20260510212922 57 108 3.5 3.5 0.00 0.00 0.00 31 1018.6
20260510212420 57 54 1.7 2.6 0.00 0.00 0.00 35 1018.4
20260510211916 57 223 1.7 1.7 0.00 0.00 0.00 33 1018.2
20260510211414 58 213 0.9 0.9 0.00 0.00 0.00 34 1018.2
20260510210914 59 179 0.9 0.9 0.00 0.00 0.00 32 1018.1
20260510210409 61 350 0.9 0.9 0.00 0.00 0.00 32 1018.2
20260510205907 61 348 0.9 0.9 0.00 0.00 0.00 32 1018.1
20260510205403 59 95 0.9 0.9 0.00 0.00 0.00 30 1018.1
20260510204859 59 312 1.7 1.7 0.00 0.00 0.00 31 1018.3
20260510204356 59 256 2.6 2.6 0.00 0.00 0.00 34 1018.3
20260510203853 59 282 1.7 2.6 0.00 0.00 0.00 34 1018.3
20260510203351 58 207 0.9 0.9 0.00 0.00 0.00 32 1018.3
20260510202851 58 100 2.6 6.1 0.00 0.00 0.00 29 1018.3
20260510202346 58 294 1.7 1.7 0.00 0.00 0.00 33 1018.4
20260510201843 58 53 0.9 0.9 0.00 0.00 0.00 35 1018.6
20260510201341 58 69 0.9 0.9 0.00 0.00 0.00 35 1018.3
20260510200837 59 236 1.7 1.7 0.00 0.00 0.00 35 1018.3
20260510200336 59 223 0.0 0.0 0.00 0.00 0.00 28 1018.5
20260510195831 58 221 1.7 1.7 0.00 0.00 0.00 31 1018.5
20260510195328 58 255 1.7 1.7 0.00 0.00 0.00 31 1018.4
20260510194823 59 302 0.0 0.9 0.00 0.00 0.00 29 1018.7
20260510194319 59 209 1.7 1.7 0.00 0.00 0.00 35 1018.4
20260510193815 59 145 0.9 0.9 0.00 0.00 0.00 31 1018.6
20260510193310 58 184 0.0 0.0 0.00 0.00 0.00 32 1018.7
20260510192806 58 288 2.6 2.6 0.00 0.00 0.00 29 1018.7
20260510192301 58 286 4.3 7.0 0.00 0.00 0.00 29 1018.8
20260510191758 58 349 0.9 1.7 0.00 0.00 0.00 30 1018.7
20260510191254 58 222 1.7 2.6 0.00 0.00 0.00 35 1018.6
20260510190752 58 255 1.7 2.6 0.00 0.00 0.00 34 1018.7
20260510190248 59 89 0.9 0.9 0.00 0.00 0.00 32 1018.8
20260510185745 58 207 1.7 2.6 0.00 0.00 0.00 35 1018.6
20260510185243 57 335 0.9 0.9 0.00 0.00 0.00 33 1018.7
20260510184739 57 269 0.9 0.9 0.00 0.00 0.00 35 1018.6
20260510184237 57 279 1.7 2.6 0.00 0.00 0.00 33 1018.5
20260510183731 59 288 3.5 5.2 0.00 0.00 0.00 29 1018.4
20260510183226 58 68 0.9 0.9 0.00 0.00 0.00 33 1018.4
20260510182723 57 62 1.7 1.7 0.00 0.00 0.00 33 1018.3
20260510182219 58 324 1.7 2.6 0.00 0.00 0.00 35 1018.5
20260510181716 59 328 1.7 2.6 0.00 0.00 0.00 31 1018.3
20260510181213 58 259 0.9 0.9 0.00 0.00 0.00 33 1018.4
20260510180708 57 281 2.6 2.6 0.00 0.00 0.00 33 1018.4
20260510180206 58 356 0.9 0.9 0.00 0.00 0.00 33 1018.3
20260510175702 58 12 0.9 0.9 0.00 0.00 0.00 33 1018.1
20260510175158 60 221 4.3 6.1 0.00 0.00 0.00 28 1018.2
20260510174655 60 270 3.5 3.5 0.00 0.00 0.00 35 1018.0
20260510174153 59 236 0.9 0.9 0.00 0.00 0.00 32 1018.1
20260510173649 59 155 3.5 3.5 0.00 0.00 0.00 32 1018.2
20260510173145 56 69 0.9 0.9 0.00 0.00 0.00 32 1018.2
20260510172640 58 285 0.9 0.9 0.00 0.00 0.00 32 1018.4
20260510172137 59 343 3.5 3.5 0.00 0.00 0.00 28 1018.5
20260510171634 59 304 1.7 1.7 0.00 0.00 0.00 32 1018.2
20260510171131 58 226 1.7 1.7 0.00 0.00 0.00 30 1018.2
20260510170627 59 85 0.9 1.7 0.00 0.00 0.00 29 1018.4
20260510170124 59 302 3.5 5.2 0.00 0.00 0.00 30 1018.5
20260510165620 58 205 1.7 1.7 0.00 0.00 0.00 33 1018.2
20260510165115 58 291 2.6 3.5 0.00 0.00 0.00 30 1018.5
20260510164613 58 38 2.6 3.5 0.00 0.00 0.00 33 1018.3
20260510164110 59 72 1.7 2.6 0.00 0.00 0.00 34 1018.6
20260510163605 57 17 0.9 0.9 0.00 0.00 0.00 36 1018.4
20260510163102 58 82 0.0 0.9 0.00 0.00 0.00 33 1018.3
20260510162556 59 143 1.7 2.6 0.00 0.00 0.00 34 1018.5
20260510162053 58 95 1.7 1.7 0.00 0.00 0.00 36 1018.8
20260510161548 57 165 0.9 1.7 0.00 0.00 0.00 39 1018.3
20260510161046 57 82 1.7 1.7 0.00 0.00 0.00 33 1018.4
20260510160543 57 329 0.9 0.9 0.00 0.00 0.00 33 1018.4
20260510160042 57 191 3.5 5.2 0.00 0.00 0.00 31 1018.4
20260510155539 56 135 0.9 1.7 0.00 0.00 0.00 37 1018.4
20260510155036 57 255 3.5 6.1 0.00 0.00 0.00 34 1018.4
20260510154531 55 252 1.7 2.6 0.00 0.00 0.00 36 1018.3
20260510154026 56 92 2.6 2.6 0.00 0.00 0.00 35 1018.4
20260510153521 55 73 0.9 1.7 0.00 0.00 0.00 35 1018.3
20260510153019 56 291 3.5 3.5 0.00 0.00 0.00 34 1018.0
20260510152516 56 260 2.6 3.5 0.00 0.00 0.00 36 1018.1
20260510152012 56 252 2.6 2.6 0.00 0.00 0.00 34 1018.0
20260510151509 56 217 1.7 1.7 0.00 0.00 0.00 35 1018.4
20260510151007 56 207 0.9 0.9 0.00 0.00 0.00 36 1018.1
20260510150501 56 159 1.7 2.6 0.00 0.00 0.00 36 1018.0
20260510145957 56 148 1.7 1.7 0.00 0.00 0.00 36 1018.0
20260510145454 55 271 2.6 2.6 0.00 0.00 0.00 39 1017.9
20260510144950 55 223 1.7 1.7 0.00 0.00 0.00 40 1017.9
20260510144448 55 198 2.6 2.6 0.00 0.00 0.00 36 1018.0
20260510143943 55 2 1.7 1.7 0.00 0.00 0.00 41 1017.9
20260510143439 55 47 0.9 0.9 0.00 0.00 0.00 40 1018.0
20260510142936 55 24 0.9 0.9 0.00 0.00 0.00 38 1018.1
20260510142433 55 103 0.9 0.9 0.00 0.00 0.00 41 1017.7
20260510141929 55 114 1.7 1.7 0.00 0.00 0.00 36 1017.9
20260510141426 54 277 0.9 0.9 0.00 0.00 0.00 42 1017.9
20260510140923 53 213 0.9 1.7 0.00 0.00 0.00 44 1017.7
20260510140420 53 316 1.7 2.6 0.00 0.00 0.00 41 1017.7
20260510135919 53 287 1.7 2.6 0.00 0.00 0.00 41 1017.8
20260510135415 53 193 0.9 1.7 0.00 0.00 0.00 37 1017.8
20260510134912 53 165 0.9 1.7 0.00 0.00 0.00 40 1017.9
20260510134409 52 43 1.7 1.7 0.00 0.00 0.00 42 1017.7
20260510133905 52 74 0.9 1.7 0.00 0.00 0.00 43 1017.7
20260510133402 53 204 2.6 2.6 0.00 0.00 0.00 40 1017.6
20260510132857 53 129 0.9 0.9 0.00 0.00 0.00 41 1017.5
20260510132355 51 151 0.0 0.9 0.00 0.00 0.00 46 1017.5
20260510131852 51 188 0.9 1.7 0.00 0.00 0.00 43 1017.2
20260510131349 51 119 0.0 0.9 0.00 0.00 0.00 43 1017.3
20260510130845 52 172 1.7 0.9 0.00 0.00 0.00 47 1017.3
20260510130343 51 109 0.0 0.9 0.00 0.00 0.00 49 1017.2
20260510125840 51 179 0.9 1.7 0.00 0.00 0.00 44 1017.1
20260510125336 50 196 0.9 0.9 0.00 0.00 0.00 46 1016.9
20260510124833 50 203 1.7 1.7 0.00 0.00 0.00 47 1017.1
20260510124330 49 58 1.7 1.7 0.00 0.00 0.00 52 1017.1
20260510123825 48 170 0.9 0.9 0.00 0.00 0.00 52 1017.2
20260510123321 48 249 0.9 0.9 0.00 0.00 0.00 57 1017.0
20260510122817 47 282 0.9 0.9 0.00 0.00 0.00 54 1017.1
20260510122314 46 308 0.0 0.0 0.00 0.00 0.00 58 1017.0
20260510121810 45 114 0.0 0.0 0.00 0.00 0.00 65 1016.8
20260510121308 44 60 0.9 0.9 0.00 0.00 0.00 63 1016.7
20260510120804 44 169 0.9 1.7 0.00 0.00 0.00 65 1016.7
20260510120301 43 167 0.9 0.9 0.00 0.00 0.00 65 1016.8
20260510115757 44 76 0.0 0.0 0.00 0.00 0.00 66 1016.7
20260510115255 43 70 0.0 0.0 0.00 0.00 0.00 71 1016.6
20260510114755 41 70 0.0 0.0 0.00 0.00 0.00 73 1016.6
20260510114253 40 69 0.0 0.0 0.00 0.00 0.00 76 1016.5
20260510113748 39 69 0.0 0.0 0.00 0.00 0.00 81 1016.4
20260510113245 37 69 0.0 0.0 0.00 0.00 0.00 84 1016.3
20260510112741 36 69 0.0 0.0 0.00 0.00 0.00 86 1016.1
20260510112238 36 69 0.0 0.0 0.00 0.00 0.00 85 1016.2
20260510111734 36 69 0.0 0.0 0.00 0.00 0.00 86 1016.1
20260510111232 36 69 0.0 0.0 0.00 0.00 0.00 90 1015.9
20260510110731 36 69 0.0 0.0 0.00 0.00 0.00 95 1016.0
20260510110229 35 69 0.0 0.0 0.00 0.00 0.00 95 1016.0
20260510105728 33 69 0.0 0.0 0.00 0.00 0.00 95 1015.9
20260510105224 31 69 0.0 0.0 0.00 0.00 0.00 95 1015.7
20260510104720 30 69 0.0 0.0 0.00 0.00 0.00 94 1015.8
20260510104218 30 69 0.0 0.0 0.00 0.00 0.00 94 1015.9
20260510103714 30 69 0.0 0.0 0.00 0.00 0.00 94 1015.5
20260510103211 29 69 0.0 0.0 0.00 0.00 0.00 93 1015.5
20260510102711 29 69 0.0 0.0 0.00 0.00 0.00 93 1015.5
20260510102207 30 69 0.0 0.0 0.00 0.00 0.00 93 1015.5
20260510101705 30 69 0.0 0.0 0.00 0.00 0.00 93 1015.3
20260510101203 30 69 0.0 0.0 0.00 0.00 0.00 93 1015.1
20260510100658 30 69 0.0 0.0 0.00 0.00 0.00 93 1015.3
20260510100156 30 69 0.0 0.0 0.00 0.00 0.00 93 1015.0
20260510095652 30 69 0.0 0.0 0.00 0.00 0.00 92 1015.1
20260510095147 30 69 0.0 0.0 0.00 0.00 0.00 91 1014.8
20260510094646 30 69 0.0 0.0 0.00 0.00 0.00 91 1014.9
20260510094142 31 69 0.0 0.0 0.00 0.00 0.00 91 1014.9
20260510093638 31 69 0.0 0.0 0.00 0.00 0.00 91 1014.9
20260510093135 31 69 0.0 0.0 0.00 0.00 0.00 90 1014.9
20260510092632 32 69 0.0 0.0 0.00 0.00 0.00 89 1014.7
20260510092127 32 69 0.0 0.0 0.00 0.00 0.00 88 1014.7
20260510091623 32 69 0.0 0.0 0.00 0.00 0.00 87 1014.7
20260510091120 32 69 0.0 0.0 0.00 0.00 0.00 87 1014.8
20260510090617 32 69 0.0 0.0 0.00 0.00 0.00 87 1014.8
20260510090113 32 69 0.0 0.0 0.00 0.00 0.00 88 1014.6
20260510085608 33 69 0.0 0.0 0.00 0.00 0.00 88 1014.5
20260510085103 33 69 0.0 0.0 0.00 0.00 0.00 87 1014.4
20260510084600 33 69 0.0 0.0 0.00 0.00 0.00 86 1014.2
20260510084057 33 69 0.0 0.0 0.00 0.00 0.00 86 1014.3
20260510083553 34 69 0.0 0.0 0.00 0.00 0.00 84 1014.1
20260510083050 34 69 0.0 0.0 0.00 0.00 0.00 83 1013.9
20260510082546 34 69 0.0 0.0 0.00 0.00 0.00 83 1014.0
20260510082042 34 69 0.0 0.0 0.00 0.00 0.00 84 1013.7
20260510081537 35 69 0.0 0.0 0.00 0.00 0.00 83 1013.7
20260510081033 35 69 0.0 0.0 0.00 0.00 0.00 81 1013.7
20260510080532 36 69 0.0 0.0 0.00 0.00 0.00 82 1013.8
20260510080030 36 69 0.0 0.0 0.00 0.00 0.00 80 1013.5
20260510075527 37 69 0.0 0.0 0.00 0.00 0.00 76 1013.4
20260510075023 37 69 0.0 0.0 0.00 0.00 0.00 78 1013.3
20260510074521 37 69 0.0 0.0 0.00 0.00 0.00 78 1013.2
20260510074016 36 69 0.0 0.0 0.00 0.00 0.00 77 1013.4
20260510073513 37 69 0.0 0.0 0.00 0.00 0.00 77 1013.4
20260510073010 37 69 0.0 0.0 0.00 0.00 0.00 74 1013.3
20260510072506 37 69 0.0 0.0 0.00 0.00 0.00 75 1013.4
20260510072001 37 69 0.0 0.0 0.00 0.00 0.00 75 1013.1
20260510071458 38 69 0.0 0.0 0.00 0.00 0.00 74 1013.0
20260510070956 39 69 0.0 0.0 0.00 0.00 0.00 72 1012.8
20260510070453 40 69 0.0 0.0 0.00 0.00 0.00 71 1013.1
20260510065948 40 69 0.0 0.0 0.00 0.00 0.00 65 1012.8
20260510065446 40 69 0.0 0.0 0.00 0.00 0.00 67 1012.9
20260510064942 39 69 0.0 0.0 0.00 0.00 0.00 71 1012.7
20260510064440 39 69 0.0 0.0 0.00 0.00 0.00 72 1012.9
20260510063936 39 69 0.0 0.0 0.00 0.00 0.00 76 1012.7
20260510063432 39 69 0.0 0.0 0.00 0.00 0.00 81 1012.9
20260510062931 39 69 0.9 0.9 0.00 0.00 0.00 79 1012.7
20260510062430 39 58 0.0 0.0 0.00 0.00 0.00 82 1012.6
20260510061926 40 58 0.0 0.0 0.00 0.00 0.00 80 1012.6
20260510061423 40 58 0.0 0.0 0.00 0.00 0.00 76 1012.3
20260510060919 40 58 0.0 0.0 0.00 0.00 0.00 76 1012.3
20260510060416 40 58 0.0 0.0 0.00 0.00 0.00 79 1012.3
20260510055913 40 58 0.0 0.0 0.00 0.00 0.00 79 1012.2
20260510055408 40 58 0.0 0.0 0.00 0.00 0.00 80 1012.0
20260510054906 41 58 0.0 0.0 0.00 0.00 0.00 74 1012.0
20260510054402 41 58 0.0 0.0 0.00 0.00 0.00 73 1012.0
20260510053857 42 58 0.0 0.0 0.00 0.00 0.00 74 1011.9
20260510053353 42 58 0.0 0.0 0.00 0.00 0.00 72 1011.7
20260510052849 43 58 0.0 0.9 0.00 0.00 0.00 73 1011.7
20260510052345 43 58 0.0 0.0 0.00 0.00 0.00 70 1011.7
20260510051841 43 58 0.0 0.0 0.00 0.00 0.00 68 1011.5
20260510051338 43 58 0.0 0.0 0.00 0.00 0.00 68 1011.7
20260510050835 44 58 0.0 0.0 0.00 0.00 0.00 67 1011.5
20260510050332 44 58 0.0 0.0 0.00 0.00 0.00 68 1011.2
20260510045829 44 49 0.0 0.0 0.00 0.00 0.00 68 1011.0
20260510045325 44 48 0.0 0.9 0.00 0.00 0.00 65 1011.1
20260510044823 44 48 0.9 0.9 0.00 0.00 0.00 67 1010.9
20260510044319 44 37 0.9 1.7 0.00 0.00 0.00 69 1011.0
20260510043816 44 31 0.0 0.0 0.00 0.00 0.00 69 1010.8
20260510043312 44 350 0.0 0.0 0.00 0.00 0.00 68 1010.6
20260510042810 43 346 0.0 0.0 0.00 0.00 0.00 76 1010.5
20260510042307 43 346 0.0 0.0 0.00 0.00 0.00 79 1010.6
20260510041802 43 346 0.0 0.0 0.00 0.00 0.00 79 1010.4
20260510041259 43 321 0.0 0.0 0.00 0.00 0.00 80 1010.4
20260510040757 43 321 0.0 0.0 0.00 0.00 0.00 79 1010.2
20260510040253 42 321 0.0 0.0 0.00 0.00 0.00 77 1010.2
20260510035749 43 321 0.0 0.0 0.00 0.01 0.01 77 1010.1
20260510035245 44 321 0.0 0.0 0.00 0.01 0.01 77 1009.8
20260510034741 44 321 0.0 0.0 0.00 0.01 0.01 76 1009.7
20260510034239 44 321 0.0 0.0 0.00 0.01 0.01 76 1009.7
20260510033734 44 321 0.0 0.0 0.00 0.01 0.01 73 1009.6
20260510033232 45 321 0.0 0.0 0.00 0.01 0.01 70 1009.4
20260510032728 46 321 0.0 0.0 0.00 0.01 0.01 72 1009.5
20260510032224 46 321 0.0 0.0 0.00 0.01 0.01 69 1009.3
20260510031720 46 321 0.0 0.0 0.00 0.01 0.01 68 1009.2
20260510031216 47 321 0.0 0.0 0.00 0.01 0.01 65 1009.0
20260510030715 48 321 0.0 0.0 0.00 0.01 0.01 61 1009.0
20260510030213 49 321 0.0 0.0 0.00 0.01 0.01 61 1009.1
20260510025710 50 321 0.0 0.0 0.00 0.01 0.01 58 1008.9
20260510025208 50 320 0.0 0.0 0.00 0.01 0.01 56 1008.9
20260510024704 50 320 0.0 0.0 0.00 0.01 0.01 56 1009.0
20260510024201 51 320 0.0 0.0 0.00 0.01 0.01 54 1008.9
20260510023657 51 320 0.9 0.9 0.00 0.01 0.01 52 1008.7
20260510023154 51 315 0.0 0.0 0.00 0.01 0.01 55 1008.6
20260510022649 51 315 0.0 0.0 0.00 0.01 0.01 53 1008.5
20260510022144 52 316 0.0 0.0 0.00 0.01 0.01 53 1008.3
20260510021640 53 316 0.0 0.0 0.00 0.01 0.01 51 1008.4
20260510021138 54 316 0.0 0.0 0.00 0.01 0.01 50 1008.1
20260510020637 55 316 0.0 0.0 0.00 0.01 0.01 49 1008.1
20260510020133 56 317 0.9 0.9 0.00 0.01 0.01 46 1007.8
20260510015629 57 302 0.9 0.9 0.00 0.01 0.01 44 1007.7
20260510015126 57 110 0.9 1.7 0.00 0.01 0.01 46 1007.4
20260510014621 57 99 0.9 0.9 0.00 0.01 0.01 48 1007.6
20260510014119 57 190 1.7 1.7 0.00 0.01 0.01 46 1007.4
20260510013619 57 243 0.0 0.0 0.00 0.01 0.01 46 1007.1
20260510013115 57 258 0.0 0.0 0.00 0.01 0.01 46 1007.0
20260510012614 57 28 0.9 0.9 0.00 0.01 0.01 45 1006.7
20260510012111 57 49 1.7 1.7 0.00 0.01 0.01 46 1006.6
20260510011610 57 203 1.7 1.7 0.00 0.01 0.01 46 1006.5
20260510011107 58 255 0.0 0.9 0.00 0.01 0.01 44 1006.3
20260510010603 58 255 0.9 1.7 0.00 0.01 0.01 44 1006.2
20260510010101 58 242 2.6 2.6 0.00 0.01 0.01 44 1006.1
20260510005556 58 122 1.7 1.7 0.00 0.01 0.01 44 1005.9
20260510005054 58 53 0.9 0.9 0.00 0.01 0.01 43 1005.8
20260510004551 59 253 1.7 1.7 0.00 0.01 0.01 42 1005.5
20260510004049 59 243 0.9 0.9 0.00 0.01 0.01 41 1005.8
20260510003545 59 351 1.7 1.7 0.00 0.01 0.01 41 1005.5
20260510003041 59 97 1.7 1.7 0.00 0.01 0.01 43 1005.6
20260510002537 60 311 2.6 3.5 0.00 0.01 0.01 41 1005.3
20260510002034 60 307 1.7 2.6 0.00 0.01 0.01 40 1005.4
20260510001531 61 130 1.7 3.5 0.00 0.01 0.01 37 1005.0
20260510001030 62 294 1.7 2.6 0.00 0.01 0.01 37 1004.9
20260510000524 62 298 0.0 0.0 0.00 0.01 0.01 37 1004.7
20260510000021 62 273 0.0 0.0 0.00 0.01 0.01 38 1004.5
20260509235518 63 300 1.7 2.6 0.00 0.01 0.01 36 1004.5
20260509235015 63 268 1.7 2.6 0.00 0.01 0.01 37 1004.2
20260509234511 63 294 1.7 1.7 0.00 0.01 0.01 35 1004.3
20260509234009 64 336 1.7 1.7 0.00 0.01 0.01 36 1004.3
20260509233506 64 307 1.7 1.7 0.00 0.01 0.01 36 1003.9
20260509233003 64 264 2.6 2.6 0.00 0.01 0.01 38 1004.0
20260509232500 64 194 1.7 2.6 0.00 0.01 0.01 36 1004.0
20260509231956 64 262 2.6 2.6 0.00 0.01 0.01 36 1003.8
20260509231453 64 6 0.9 0.9 0.00 0.01 0.01 35 1004.0
20260509230951 64 149 1.7 2.6 0.00 0.01 0.01 38 1003.8
20260509230447 64 207 1.7 1.7 0.00 0.01 0.01 37 1003.7
20260509225944 64 253 0.9 0.9 0.00 0.01 0.01 37 1003.7
20260509225440 65 269 1.7 1.7 0.00 0.01 0.01 34 1003.5
20260509224936 66 312 0.9 0.9 0.00 0.01 0.01 35 1003.5
20260509224431 67 275 0.9 0.9 0.00 0.01 0.01 36 1003.4
20260509223929 66 230 0.9 0.9 0.00 0.01 0.01 36 1003.5
20260509223425 66 243 2.6 3.5 0.00 0.01 0.01 34 1003.1
20260509222924 66 252 2.6 3.5 0.00 0.01 0.01 32 1003.3
20260509222424 67 37 0.9 1.7 0.00 0.01 0.01 32 1003.5
20260509221920 67 79 3.5 3.5 0.00 0.01 0.01 32 1003.3
20260509221417 67 246 5.2 6.1 0.00 0.01 0.01 32 1003.3
20260509220912 67 107 2.6 6.1 0.00 0.01 0.01 31 1003.3
20260509220408 68 230 2.6 2.6 0.00 0.01 0.01 33 1003.1
20260509215904 68 327 1.7 2.6 0.00 0.01 0.01 32 1003.2
20260509215400 68 28 1.7 1.7 0.00 0.01 0.01 33 1003.2
20260509214858 68 215 0.9 0.9 0.00 0.01 0.01 38 1002.8
20260509214355 68 273 2.6 3.5 0.00 0.01 0.01 33 1003.0